Location: M?digepalle
(16.1753°N, 80.3496°E)
Time: 08:57:14
(UTC+00:00)

Meteor 1-31 Rocket - Pass Details

Date: 29 October 2020
Orbit: 521 x 546 km, 97.6° (Epoch: 27 November)

Event Time Altitude Azimuth Distance (km) Brightness Sun altitude
Rises 23:19:16 0° 7° (N) 2,700 6.3 -18.7°
Reaches altitude 10° 23:21:24 10° 5° (N) 1,805 5.4 -18.2°
Maximum altitude 23:25:16 67° 283° (WNW) 587 2.6 -17.2°
Drops below altitude 10° 23:29:06 10° 200° (SSW) 1,790 5.3 -16.3°
Sets 23:31:13 0° 197° (SSW) 2,675 6.3 -15.8°
